Regional Weather Roundup
Issued by NWS Newport/Morehead, NC

Current Version | Previous Version | Text Only | Print | Product List | Glossary Off
Versions: 1 2 3 4 5 6 7 8 9 10 11 12 13 14 15 16 17 18 19 20 21 22 23 24 25 26 27 28 29 30 31 32 33 34 35 36 37 38 39 40 41 42 43 44 45 46 47 48 49 50
000 ASUS42 KMHX 281513 RWRMHX WEATHER ROUNDUP FOR EASTERN NORTH CAROLINA NATIONAL WEATHER SERVICE NEWPORT/MOREHEAD CITY NC 1100 AM EDT THU JUL 28 2016 NOTE: "FAIR" INDICATES FEW OR NO CLOUDS BELOW 12,000 FEET WITH NO SIGNIFICANT WEATHER AND/OR OBSTRUCTIONS TO VISIBILITY NCZ015>017-031-032-045>047-102-103-281600- NORTH COAST CITY SKY/WX TMP DP RH WIND PRES REMARKS EDENTON SUNNY 88 76 69 W3 29.93S ELIZABETH CITY SUNNY 89 79 72 SW6 29.92S HX 104 KITTY HAWK SUNNY 91 77 63 S5 29.92S HX 103 MANTEO N/A 86 80 81 SW7 29.93F HX 100 $$ NCZ045>047-081-094-103-104-281600- CENTRAL COAST CITY SKY/WX TMP DP RH WIND PRES REMARKS FRISCO SUNNY 85 80 85 SW10 29.95R $$ NCZ095-097-098-100-101-281600- SOUTHERN COAST CITY SKY/WX TMP DP RH WIND PRES REMARKS BEAUFORT SUNNY 87 80 79 W8 N/A HX 103 CEDAR ISLAND NOT AVBL JACKSONVILLE MOSUNNY 92 76 59 W7 29.94S HX 104 PINEY ISLAND NOT AVBL WILMINGTON SUNNY 92 75 57 W8 29.96F HX 103 $$ NCZ011>013-027>030-043-044-078>080-089-090>093-098-281600- COASTAL PLAIN CITY SKY/WX TMP DP RH WIND PRES REMARKS AHOSKIE SUNNY 86 78 78 SE3 29.92F CLINTON SUNNY 91 74 56 W8 29.96S HX 101 ELIZABETHTOWN SUNNY 90 70 51 W7 29.96F GOLDSBORO NOT AVBL GREENVILLE SUNNY 91 79 66 W5 29.95S HX 107 HAVELOCK SUNNY 91 77 63 W6 29.95S HX 104 KENANSVILLE NOT AVBL KINSTON SUNNY 93 75 55 S5 29.94F HX 104 NEW BERN SUNNY 92 78 63 SW6 29.95S HX 107 RICHLANDS SUNNY 94 77 57 W7 29.95F HX 108 ROCKY MOUNT SUNNY 90 79 70 S5 29.93F HX 106 WASHINGTON SUNNY 89 79 73 W3 29.93S HX 104 WHITEVILLE SUNNY 89 71 56 SW7 29.97S $$ AMZ130-135-150-152-154-156-158-170-250-252-270-ANZ085-086-088-633-658-670-281600- MARINE OBSERVATIONS STATION/POSITION TIME TEMP WIND PRES WAVE SWELL AIR SEA DIR/SP/G HT/PER HT/PER (UTC) (F) (DEG/KT/KT) (MB) (FT/S) (FT/S) CHESAPEAKE LIGHT NOT AVBL 64 E VA BEACH 1450 82 83 210/ 6/ 8 1013.1 2/ 8 2/ 8 DUCK 1400 83 76 210/ 4/ 7 1012.8 2 E DUCK 1411 79 N/A 1/ 8 OREGON INLET 1400 84 84 190/ 5/ 5 1013.6 13E OREGON INLT 1400 81 N/A 2/ 5 2/ 5 HATTERAS CG 1400 85 82 220/ 7/ 11 1013.6 DIAMOND BUOY 1450 85 84 240/ 12/ 14 1014.0 2/ 6 2/ 7 CAPE LOOKOUT 1500 85 240/ 10/ 13 1013.8 BEAUFORT LAB 1400 86 82 230/ 4/ 7 1013.5 30 SE NEW RVR IN 1408 85 84 250/ 12/ 16 1014.6 30 SE NEW RVR IN 1425 84 N/A 4/ 6 27 SE WRIGHTSVLE 1408 85 84 240/ 10/ 14 1015.1 5 SE WRIGHTSVLE 1408 84 80 210/ 4/ 8 1015.8 225 S CAPE HAT 1450 84 85 270/ 8/ 16 1016.9 3/ 5 3/ 5 41 SE CHARLESTON 1450 85 86 260/ 12/ 12 1016.2 4/ 6 3/ 6 $$

USA.gov is the U.S. government's official web portal to all federal, state and local government web resources and services.